(357809) = 2005 TS161

Discovered at Kitt Peak on 2005-10-09 by Spacewatch.

Orbit

Orbit type: Main Belt

Note: WebGL enabled browser required.

epoch2024-03-31.0
epoch JD2460400.5
perihelion date2023-06-19.34469
perihelion JD2460114.84469
argument of perihelion (°)71.66916
ascending node (°)14.33551
inclination (°)10.47512
eccentricity0.0587394
perihelion distance (AU)2.9776175
Tisserand w.r.t. Jupiter3.2
ΔV w.r.t. Earth (km/sec)11.2
semimajor axis (AU)3.1634360
mean anomaly (°)50.03888
mean daily motion (°/day)0.17517220
aphelion distance (AU)3.349
period (years)5.63
P-vector [x]0.07359222
P-vector [y]0.83253983
P-vector [z]0.54905520
Q-vector [x]-0.99627194
Q-vector [y]0.03652172
Q-vector [z]0.07815621
absolute magnitude16.15
phase slope0.15
uncertainty0
referenceMPEC 2024-E179
observations used224
oppositions11
arc length (days)6746
first opposition used2005
last opposition used2024
residual rms (arc-secs)0.79
perturbers coarse indicatorM-v
perturbers precise indicator003Ek
first observation date used2005-09-23.0
last observation date used2024-03-13.0
computer nameMPCLINUX
Minimum Orbit Intersection Distances (in AU)
for orbit epoch: 2460400.5, reference: E2024-D64
Mercury2.67043
Venus2.27035
Earth2.01463
Mars1.40646
Jupiter1.80999
Saturn6.14741
Uranus15.2988
Neptune26.7423

Observations

229 total observations over interval: 2005 09 23.39448 – 2024 03 13.192027
These data are available for download (format description).

Date (UT) J2000 RA J2000 Dec Magn Location Ref
2005 09 23.39448 02 09 50.53 +15 46 48.6 21.1 V 291 – LPL/Spacewatch II MPS 150836
2005 09 23.41319 02 09 49.91 +15 46 49.8 21.1 V 291 – LPL/Spacewatch II MPS 150836
2005 09 23.43100 02 09 49.30 +15 46 50.6 21.0 V 291 – LPL/Spacewatch II MPS 150836
2005 10 09.33678 01 59 04.70 +15 48 41.1 20.2 V 691 – Steward Observatory, Kitt Peak-Spacewatch MPS 147757
2005 10 09.35410 01 59 03.82 +15 48 40.1 20.4 V 691 – Steward Observatory, Kitt Peak-Spacewatch MPS 147757
2005 10 09.37141 01 59 02.99 +15 48 39.7 20.8 V 691 – Steward Observatory, Kitt Peak-Spacewatch MPS 147757
2005 10 13.31739 01 55 49.01 +15 45 28.4 20.3 V 691 – Steward Observatory, Kitt Peak-Spacewatch MPS 147757
2005 10 13.33593 01 55 48.12 +15 45 26.7 20.7 V 691 – Steward Observatory, Kitt Peak-Spacewatch MPS 147757
2005 10 13.35326 01 55 47.19 +15 45 26.5 20.5 V 691 – Steward Observatory, Kitt Peak-Spacewatch MPS 147757
2005 10 29.29537 01 41 56.29 +15 21 50.1 20.4 V 703 – Catalina Sky Survey MPS 150836
2005 10 29.30074 01 41 56.00 +15 21 47.9 20.4 V 703 – Catalina Sky Survey MPS 150836
2005 10 29.30610 01 41 55.68 +15 21 47.5 20.1 V 703 – Catalina Sky Survey MPS 150836
2005 10 29.31167 01 41 55.39 +15 21 46.1 20.1 V 703 – Catalina Sky Survey MPS 150836
2005 10 30.11794 01 41 14.16 +15 20 17.2 20.5 V 691 – Steward Observatory, Kitt Peak-Spacewatch MPS 150836
2005 10 30.13341 01 41 13.38 +15 20 15.5 20.3 V 691 – Steward Observatory, Kitt Peak-Spacewatch MPS 150836
2005 10 30.14886 01 41 12.56 +15 20 14.0 20.4 V 691 – Steward Observatory, Kitt Peak-Spacewatch MPS 150836
2005 11 04.29653 01 36 54.82 +15 10 26.6 20.8 V 703 – Catalina Sky Survey MPS 149698
2005 11 04.30233 01 36 54.46 +15 10 25.6 20.5 V 703 – Catalina Sky Survey MPS 149698
2005 11 04.30816 01 36 54.21 +15 10 23.6 19.9 V 703 – Catalina Sky Survey MPS 149698
2005 11 04.31396 01 36 53.85 +15 10 24.4 20.2 V 703 – Catalina Sky Survey MPS 149698
2005 11 05.27799 01 36 07.48 +15 08 32.1 20.1 V 703 – Catalina Sky Survey MPS 149698
2005 11 05.28339 01 36 07.12 +15 08 33.4 19.9 V 703 – Catalina Sky Survey MPS 149698
2005 11 05.28878 01 36 06.94 +15 08 30.6 20.9 V 703 – Catalina Sky Survey MPS 149698
2005 11 05.29419 01 36 06.62 +15 08 30.4 20.2 V 703 – Catalina Sky Survey MPS 149698
2005 11 12.08558 01 31 01.61 +14 55 52.7 21.3 V 691 – Steward Observatory, Kitt Peak-Spacewatch MPS 149698
2005 11 12.09579 01 31 01.13 +14 55 51.8 20.8 V 691 – Steward Observatory, Kitt Peak-Spacewatch MPS 149698
2005 11 12.10587 01 31 00.75 +14 55 51.0 21.0 V 691 – Steward Observatory, Kitt Peak-Spacewatch MPS 149698
2008 03 12.44751 13 44 41.32 -11 40 29.6 20.9 V 691 – Steward Observatory, Kitt Peak-Spacewatch MPS 248155
2008 03 12.46526 13 44 40.76 -11 40 30.1 20.8 V 691 – Steward Observatory, Kitt Peak-Spacewatch MPS 248155
2008 03 12.48300 13 44 40.19 -11 40 29.5 20.8 V 691 – Steward Observatory, Kitt Peak-Spacewatch MPS 248155
2008 04 27.20411 13 10 40.36 -10 29 59.3   291 – LPL/Spacewatch II MPS 248155
2008 04 27.20788 13 10 40.19 -10 29 58.8   291 – LPL/Spacewatch II MPS 248155
2008 04 27.21180 13 10 40.00 -10 29 58.3   291 – LPL/Spacewatch II MPS 248155
2008 04 27.25442 13 10 38.10 -10 29 53.4 21.0 V G96 – Mt. Lemmon Survey MPS 248155
2008 04 27.25903 13 10 37.88 -10 29 52.4 20.7 V G96 – Mt. Lemmon Survey MPS 248155
2008 04 27.26365 13 10 37.66 -10 29 52.0 20.4 V G96 – Mt. Lemmon Survey MPS 248155
2008 04 27.26824 13 10 37.45 -10 29 52.1 20.8 V G96 – Mt. Lemmon Survey MPS 248155
2008 04 30.13729 13 08 33.75 -10 24 03.2 21.2 V 691 – Steward Observatory, Kitt Peak-Spacewatch MPS 248155
2008 04 30.15570 13 08 32.95 -10 24 00.6 20.8 V 691 – Steward Observatory, Kitt Peak-Spacewatch MPS 248155
2008 04 30.17411 13 08 32.18 -10 23 58.9 20.9 V 691 – Steward Observatory, Kitt Peak-Spacewatch MPS 248155
2008 05 08.15953 13 03 23.84 -10 09 49.4   691 – Steward Observatory, Kitt Peak-Spacewatch MPS 248983
2008 05 08.18414 13 03 22.93 -10 09 45.6   691 – Steward Observatory, Kitt Peak-Spacewatch MPS 248983
2008 05 08.20876 13 03 22.08 -10 09 45.1   691 – Steward Observatory, Kitt Peak-Spacewatch MPS 248983
2012 01 01.20651 03 32 29.68 +31 31 59.5 20.8 V G96 – Mt. Lemmon Survey MPS 405942
2012 01 01.21403 03 32 29.54 +31 31 58.1 20.3 V G96 – Mt. Lemmon Survey MPS 405942
2012 01 01.22160 03 32 29.36 +31 31 57.0 20.4 V G96 – Mt. Lemmon Survey MPS 405942
2012 01 01.22911 03 32 29.18 +31 31 55.9 20.2 V G96 – Mt. Lemmon Survey MPS 405942
2013 02 13.37530 10 48 13.084 +18 45 20.66 20.6 w F51 – Pan-STARRS 1, Haleakala MPS 453695
2013 02 13.38911 10 48 12.401 +18 45 23.46 20.6 w F51 – Pan-STARRS 1, Haleakala MPS 453695
2013 02 13.41692 10 48 11.009 +18 45 29.14 20.5 w F51 – Pan-STARRS 1, Haleakala MPS 453695
2013 02 15.13327 10 46 46.99 +18 51 05.0 19.9 R J04 – ESA Optical Ground Station, Tenerife MPS 456365
2013 02 15.14484 10 46 46.39 +18 51 07.7 20.2 R J04 – ESA Optical Ground Station, Tenerife MPS 456365
2013 02 15.15641 10 46 45.84 +18 51 09.8 20.2 R J04 – ESA Optical Ground Station, Tenerife MPS 456365
2013 02 15.17493 10 46 44.89 +18 51 13.5 20.3 R J04 – ESA Optical Ground Station, Tenerife MPS 456365
2013 02 17.06538 10 45 10.68 +18 57 12.8 21.1   J43 – Oukaimeden Observatory, Marrakech MPS 456365
2013 02 17.08118 10 45 09.84 +18 57 14.9 21.3   J43 – Oukaimeden Observatory, Marrakech MPS 456365
2013 02 17.09673 10 45 09.13 +18 57 17.8 21.0   J43 – Oukaimeden Observatory, Marrakech MPS 456365
2013 02 17.11246 10 45 08.29 +18 57 20.5 21.0   J43 – Oukaimeden Observatory, Marrakech MPS 456365
2013 03 11.30507 10 26 16.51 +19 42 14.7 20.5 V G96 – Mt. Lemmon Survey MPS 459280
2013 03 11.31448 10 26 16.08 +19 42 15.0 20.9 V G96 – Mt. Lemmon Survey MPS 459280
2013 03 11.32410 10 26 15.57 +19 42 16.0 20.5 V G96 – Mt. Lemmon Survey MPS 459280
2013 03 11.33367 10 26 15.14 +19 42 15.4 20.4 V G96 – Mt. Lemmon Survey MPS 459280
2014 04 29.29116 15 00 10.14 -25 17 14.2 20.6 V W84 – Cerro Tololo-DECam MPS 790051
2014 04 29.29434 15 00 09.97 -25 17 14.1   W84 – Cerro Tololo-DECam MPS 790051
2014 04 29.29748 15 00 09.81 -25 17 13.9   W84 – Cerro Tololo-DECam MPS 790051
2014 04 29.30063 15 00 09.65 -25 17 13.8   W84 – Cerro Tololo-DECam MPS 790051
2014 04 29.30381 15 00 09.48 -25 17 13.6   W84 – Cerro Tololo-DECam MPS 790051
2014 05 02.29354 14 57 34.92 -25 14 51.8 20.6 V W84 – Cerro Tololo-DECam MPS 790051
2014 05 02.29671 14 57 34.75 -25 14 51.6   W84 – Cerro Tololo-DECam MPS 790051
2014 05 02.29986 14 57 34.58 -25 14 51.4   W84 – Cerro Tololo-DECam MPS 790051
2014 05 02.30307 14 57 34.41 -25 14 51.2   W84 – Cerro Tololo-DECam MPS 790051
2014 05 02.30624 14 57 34.24 -25 14 51.0   W84 – Cerro Tololo-DECam MPS 790051
2016 08 27.49998 01 04 49.837 +03 59 44.20 21.1 w F51 – Pan-STARRS 1, Haleakala MPS 727466
2016 08 27.51205 01 04 49.562 +03 59 44.23 21.1 w F51 – Pan-STARRS 1, Haleakala MPS 727466
2016 08 27.52400 01 04 49.299 +03 59 44.26 21.1 w F51 – Pan-STARRS 1, Haleakala MPS 727466
2016 08 27.53598 01 04 49.025 +03 59 44.08 21.1 w F51 – Pan-STARRS 1, Haleakala MPS 727466
2016 09 26.45048 00 46 22.608 +03 22 59.49 20.4 w F51 – Pan-STARRS 1, Haleakala MPS 732175
2016 09 26.46319 00 46 21.975 +03 22 57.79 20.4 w F51 – Pan-STARRS 1, Haleakala MPS 732175
2016 09 26.48862 00 46 20.708 +03 22 54.79 20.4 w F51 – Pan-STARRS 1, Haleakala MPS 732175
2016 09 26.67704 00 46 11.64 +03 22 30.9 20.7 R D29 – Purple Mountain Observatory, XuYi Station MPS 732175
2016 09 26.68967 00 46 11.02 +03 22 29.3 19.9 R D29 – Purple Mountain Observatory, XuYi Station MPS 732175
2016 09 26.70229 00 46 10.35 +03 22 28.0 19.9 R D29 – Purple Mountain Observatory, XuYi Station MPS 732175
2016 09 30.42510 00 43 07.350 +03 14 42.59 20.2 w F51 – Pan-STARRS 1, Haleakala MPS 732175
2016 09 30.44790 00 43 06.187 +03 14 39.83 20.2 w F51 – Pan-STARRS 1, Haleakala MPS 732175
2016 09 30.45928 00 43 05.597 +03 14 38.43 20.5 w F51 – Pan-STARRS 1, Haleakala MPS 732175
2016 10 04.42981 00 39 47.39 +03 06 13.9 20.1 V 691 – Steward Observatory, Kitt Peak-Spacewatch MPS 734120
2016 10 04.44833 00 39 46.46 +03 06 11.8 20.3 V 691 – Steward Observatory, Kitt Peak-Spacewatch MPS 734120
2016 10 05.22474 00 39 07.99 +03 04 33.2 20.7 G G45 – Space Surveillance Telescope, Atom Site MPS 1610052
2016 10 05.26742 00 39 05.80 +03 04 28.2 20.2 G G45 – Space Surveillance Telescope, Atom Site MPS 1610052
2016 10 05.31061 00 39 03.54 +03 04 22.8 20.5 G G45 – Space Surveillance Telescope, Atom Site MPS 1610052
2016 10 05.38465 00 38 59.78 +03 04 13.0 19.9 G G45 – Space Surveillance Telescope, Atom Site MPS 1610052
